Overview Statistics Trail Chart Weather Telemetry Raw packets
 

This is the latest recevied weather packets stored in our database for station/object N5CSU. If no packets are shown the sender has not sent any weather packets the latest 10 day(s).

<< 68 69 70 71 72 73 74 >>
Time Temp. Humidity Pressure Rain* Wind** Luminosity Snow
1788135490 35° C 40% 1012.9 hPa 0 mm - 3 W/m² -
1788135185 35.56° C 40% 1012.8 hPa 0 mm - 4 W/m² -
1788134883 35.56° C 40% 1012.8 hPa 0 mm - 4 W/m² -
1788134584 35.56° C 40% 1012.9 hPa 0 mm - 4 W/m² -
1788134281 36.11° C 40% 1012.9 hPa 0 mm - 5 W/m² -
1788133976 36.11° C 39% 1012.8 hPa 0 mm - 5 W/m² -
1788133671 36.11° C 39% 1012.8 hPa 0 mm - 5 W/m² -
1788133367 36.11° C 39% 1012.7 hPa 0 mm - 6 W/m² -
1788133079 36.11° C 39% 1012.8 hPa 0 mm - 6 W/m² -
1788132758 36.11° C 39% 1012.9 hPa 0 mm - 7 W/m² -
1788132453 36.67° C 39% 1013.1 hPa 0 mm - 7 W/m² -
1788132149 36.67° C 38% 1012.9 hPa 0 mm - 6 W/m² -
1788131845 36.67° C 37% 1012.9 hPa 0 mm - 8 W/m² -
1788131545 36.67° C 36% 1013 hPa 0 mm - 10 W/m² -
1788131240 36.67° C 37% 1012.8 hPa 0 mm - 9 W/m² -
1788130935 37.22° C 37% 1013 hPa 0 mm - 15 W/m² -
1788130629 37.22° C 36% 1013 hPa 0 mm - 10 W/m² -
1788130329 37.22° C 36% 1013.3 hPa 0 mm - 13 W/m² -
1788130028 37.22° C 36% 1013.1 hPa 0 mm - 17 W/m² -
1788129725 37.22° C 36% 1013.1 hPa 0 mm - 15 W/m² -
1788129421 37.78° C 35% 1013.1 hPa 0 mm - 15 W/m² -
1788129116 38.33° C 34% 1013.1 hPa 0 mm - 13 W/m² -
1788128811 38.33° C 34% 1013.1 hPa 0 mm - 86 W/m² -
1788128506 38.33° C 34% 1013.2 hPa 0 mm - 14 W/m² -
1788128202 38.89° C 34% 1013 hPa 0 mm - 79 W/m² -

* Rain latest hour (hover to see other rain measurements)
** Current wind speed in m/s (hover to see current wind gust speed)